BREEZE-KM R/B

基本信息
目录编号:
43754
目录名称:
BREEZE-KM R/B
国际标识:
2018-097D
轨道中心:
EARTH
物体状态:
在轨
发射日期:
2018-11-30 UTC
国别:
俄罗斯(独联体) (CIS)
轨道信息
数据来源: 国际轨道数据
星历时间: 2026-07-13T23:12:49+0800
半长轴: 7719.141km
偏心率: 0.0221193
轨道倾角: 82.513°
近地点辐角: 243.511°
升交点赤经: 81.305°
平近点角: 114.315°
近地点: 1170.262km
远地点: 1511.746km
周期: 112.490分钟
每日圈数: 12.80116
详细信息
发射场:
PKMTR
轨道高度:
LEO
数据来源:
AOE Integration Group
参考系:
TEME
时间系统:
UTC
历元类型:
SGP4
2D轨道图
3D轨道图
轨道高度分析图
轨道倾角分析图
轨道综合分析图
查看轨道综合分析图